FENGYUN 1C DEB, 31977

Orbit data source: Space-Track

FENGYUN 1C DEB, 31977 is space debris in SSO originally from a launch on Mon, 10 May 1999 UTC launched from the Taiyaun Space Center, China (TSC). Fengyun 1C debris stems from the Chinese weather satellite Fengyun-1C, which was intentionally destroyed by a Chinese anti-satellite missile in 2007. This event dramatically increased the amount of space debris, with thousands of trackable fragments posing hazards to satellites and human spaceflight. The Fengyun 1C debris cloud has become a focal point in discussions about space sustainability and the need for international regulations to prevent the creation of new debris.

Loading next visibility...
Identifier
31977, 1999-025CPE
Orbit
SSO
Country
Flag of CNCN / PRC
Related business
Manufacturer
Unknown
Mission
Spacecraft
Bus & Motor
Unknown
Mass
Unknown
Launch date (UTC)
1999-05-10 (27 years ago)
Launch vehicle
Unknown
Launch site
Taiyaun Space Center, China (TSC)
Object type
Payload
Rocket body
Debris
Shape & HBR
Unknown shape, 1.1 m
Radar Cross Section
Small (<0.1 m²)

Expand to show TLE details & history
Last TLE update: 4 months ago

TLE from 4 months ago
0 FENGYUN 1C DEB
1 31977U 99025CPE 26011.67051848  .00002643  00000-0  18420-2 0  9993
2 31977  98.1918 176.0258 0274418 143.8833 218.1209 13.82769160626268
Epoch: 2026-01-11T16:05Z
TLE epoch observation values (Epoch: 2026-01-11T16:05:32.796Z)
Latitude
-0.00003°
Longitude
-176.53907°
Altitude
1,117.328 km
Speed
7.214 km/s
True Right ascension
11h 44m 06s
True Declination
0° 00' 00"
Sunlit
Object was in daylight at epoch
Visualization orbit readout
Latitude
Unknown
Longitude
Unknown
Altitude
Unknown
Speed
Unknown
Apparent Right ascension
Unknown
Apparent Declination
Unknown
Sunlit
N/A
Visualization observer readout
Local Sidereal Time
05:17:28
Azimuth
Unknown
Elevation
Unknown
Doppler factor
Unknown
Orbital elements
Apogee altitude
1,152.395 km
Perigee altitude
750.131 km
Semi-major axis
7,329.4 km
Eccentricity
0.02744
Inclination
98.1918°
RAAN
176.0258°
Arg. of periapsis
143.8833°
True anomaly
216.23107°
Mean anomaly
218.1209°
Eccentric anomaly
217.17092°
Mean motion
3.45892 °/min
Orbital period
104.08 mins
BSTAR
0.001842
Loading maneuver chart data...
Computing Atmospheric mass density...

Documentation

Showing up to 5 results
|